Вернуться в каталог

COSMOS 2499 DEB

АктивенPO
NORAD 60611·DEBRIS·🇷🇺 Russia

Запущен May 23, 2014 с Plesetsk Cosmodrome

Loading…

Ближайшие Пролёты (ближайшие 24 часа)

TLE

УстаревающийSource: Space-Track

Эпоха: Sep 6, 2026, 01:36 UTC

1 60611U 14028BX  26249.06696951  .00006231  00000-0  16857-1 0  9994
2 60611  82.5388 184.6837 0308101  58.8850 304.2101 12.98828178157350

Отслеживайте COSMOS 2499 DEB в реальном времени с AllMySat

Download on the App Store